Location: Unspecified
(0.0000°N, 0.0000°E)
Time: 22:32:47
(UTC+00:00)

STARLINK-1583 - Visible Passes

Search period start: 20 June 2025 00:00
Search period end: 30 June 2025 00:00
Orbit: 546 x 548 km, 53.1° (Epoch: 20 June)

Date Brightness Start Highest point End Pass type
(mag) Time Alt. Az. Time Alt. Az. Time Alt. Az.
21 Jun 5.3 19:53:48 10° SW 19:55:42 26° SW 19:55:42 26° SW visible
22 Jun 4.8 19:47:39 10° SW 19:51:34 42° NW 19:55:28 10° NNE visible
23 Jun 5.7 19:41:42 10° WSW 19:45:12 27° NW 19:48:43 10° N visible
24 Jun 6.6 19:36:01 10° W 19:38:51 18° NW 19:41:41 10° NNW visible
25 Jun 7.1 19:31:02 10° WNW 19:32:30 12° NW 19:33:57 10° NW visible
28 Jun 3.5 05:33:02 10° NW 05:37:07 71° WSW 05:41:14 10° SSE visible
29 Jun 3.9 05:26:47 10° NW 05:30:42 43° SW 05:34:38 10° SSE visible
